DW4604 Weather Reports


Display with metric or nautical units.
time (UTC)temp
F
wind
direction
speed
MPH
gust
MPH
rain 1hr
in
rain 24hr
in
rain mn
in
humidity
%
barometer
mb
20240424223951 39 0 0.0 0.0 0.00 0.14 0.00 94 1004.1
20240424222951 39 0 0.0 0.0 0.00 0.14 0.00 94 1004.1
20240424222451 39 0 0.0 0.0 0.00 0.14 0.00 94 1004.1
20240424221951 39 0 0.0 0.0 0.00 0.14 0.00 94 1004.2
20240424221451 39 0 0.0 0.0 0.01 0.14 0.00 94 1004.1
20240424220451 39 0 0.0 0.0 0.01 0.14 0.00 93 1004.1
20240424215953 39 0 0.0 0.0 0.01 0.14 0.00 93 1004.1
20240424215451 39 0 0.0 0.0 0.01 0.14 0.14 93 1004.1
20240424214951 39 0 0.0 0.0 0.01 0.14 0.14 93 1004.0
20240424213951 40 0 0.0 0.0 0.01 0.14 0.14 93 1004.1
20240424212952 40 0 0.0 0.0 0.01 0.14 0.14 93 1004.2
20240424212451 40 0 0.0 0.0 0.01 0.14 0.14 93 1004.2
20240424211452 40 0 0.0 0.0 0.01 0.13 0.13 93 1004.1
20240424210951 40 0 0.0 0.0 0.01 0.13 0.13 93 1004.0
20240424210451 40 0 0.0 0.0 0.01 0.13 0.13 93 1004.0
20240424205951 40 0 0.0 0.0 0.01 0.13 0.13 93 1004.1
20240424205451 40 0 0.0 0.0 0.01 0.13 0.13 93 1004.0
20240424204951 40 0 0.0 0.0 0.01 0.13 0.13 93 1004.1
20240424204451 40 0 0.0 0.0 0.02 0.13 0.13 93 1004.0
20240424203952 40 0 0.0 0.0 0.02 0.13 0.13 93 1004.0
20240424203451 40 0 0.0 0.0 0.02 0.13 0.13 93 1004.1
20240424202951 40 0 0.0 0.0 0.02 0.13 0.13 93 1004.0
20240424202451 40 0 0.0 0.0 0.02 0.13 0.13 93 1004.0
20240424201952 40 0 0.0 0.0 0.02 0.13 0.13 93 1004.0
20240424201451 40 0 0.0 0.0 0.02 0.13 0.13 93 1004.1
20240424200951 40 0 0.0 0.0 0.02 0.13 0.13 93 1004.0
20240424200452 40 0 0.0 0.0 0.02 0.13 0.13 93 1004.0
20240424195951 40 0 0.0 0.0 0.03 0.13 0.13 93 1004.0
20240424195451 40 0 0.0 0.0 0.03 0.13 0.13 93 1004.0
20240424194951 40 0 0.0 0.0 0.03 0.13 0.13 93 1004.0
20240424194452 40 0 0.0 0.0 0.03 0.12 0.12 93 1004.0
20240424193952 40 0 0.0 0.0 0.03 0.12 0.12 93 1004.0
20240424193451 40 0 0.0 0.0 0.03 0.12 0.12 93 1004.0
20240424192951 40 0 0.0 0.0 0.03 0.11 0.11 93 1004.0
20240424192451 41 0 0.0 0.0 0.03 0.11 0.11 93 1003.9
20240424191952 41 0 0.0 0.0 0.03 0.11 0.11 93 1004.0
20240424191452 41 0 0.0 0.0 0.03 0.10 0.10 93 1003.9
20240424190451 41 0 0.0 0.0 0.03 0.10 0.10 92 1003.9
20240424185952 41 0 0.0 0.0 0.02 0.09 0.09 93 1003.9
20240424185452 41 0 0.0 0.0 0.02 0.09 0.09 92 1003.8
20240424184951 41 0 0.0 0.0 0.03 0.09 0.09 92 1003.8
20240424184451 41 0 0.0 0.0 0.02 0.09 0.09 92 1003.7
20240424183952 41 0 0.0 0.0 0.03 0.09 0.09 92 1003.7
20240424183452 42 0 0.0 0.0 0.03 0.09 0.09 92 1003.7
20240424182951 42 0 0.0 0.0 0.03 0.08 0.08 92 1003.6
20240424182452 42 0 0.0 0.0 0.03 0.08 0.08 92 1003.6
20240424181952 42 0 0.0 0.0 0.04 0.08 0.08 92 1003.5
20240424181452 42 0 0.0 0.0 0.03 0.07 0.07 92 1003.4
20240424180952 41 0 0.0 0.0 0.04 0.07 0.07 92 1003.4
20240424180451 41 0 0.0 0.0 0.04 0.07 0.07 92 1003.3
20240424175952 41 0 0.0 0.0 0.05 0.07 0.07 91 1003.3
20240424175453 41 0 0.0 0.0 0.05 0.07 0.07 91 1003.3
20240424174952 41 0 0.0 0.0 0.04 0.06 0.06 91 1003.3
20240424173951 41 0 0.0 0.0 0.04 0.06 0.06 91 1003.3
20240424172952 42 0 0.0 0.0 0.04 0.05 0.05 90 1003.2
20240424172452 42 0 0.0 0.0 0.05 0.05 0.05 90 1003.1
20240424171952 42 0 0.0 0.0 0.04 0.04 0.04 90 1003.1
20240424171451 42 0 0.0 0.0 0.04 0.04 0.04 90 1003.1
20240424170953 42 0 0.0 0.0 0.03 0.03 0.03 90 1003.0
20240424170452 42 0 0.0 0.0 0.03 0.03 0.03 89 1002.9
20240424165952 42 0 0.0 0.0 0.02 0.02 0.02 89 1003.0
20240424165451 42 0 0.0 0.0 0.02 0.02 0.02 88 1002.9
20240424164953 42 0 0.0 0.0 0.02 0.02 0.02 88 1002.9
20240424163952 43 0 0.0 0.0 0.02 0.02 0.02 87 1002.7
20240424162952 43 0 0.0 0.0 0.01 0.01 0.01 86 1002.6
20240424162452 44 0 0.0 0.0 0.00 0.00 0.00 86 1002.5
20240424161952 44 0 0.0 0.0 0.00 0.00 0.00 85 1002.5
20240424161452 44 0 0.0 0.0 0.00 0.00 0.00 84 1002.5
20240424160953 44 0 0.0 0.0 0.00 0.00 0.00 83 1002.5
20240424160453 45 0 0.0 0.0 0.00 0.00 0.00 83 1002.4
20240424155452 45 0 0.0 0.0 0.00 0.00 0.00 83 1002.4
20240424154953 45 0 0.0 0.0 0.00 0.00 0.00 83 1002.5
20240424154452 45 0 0.0 0.0 0.00 0.00 0.00 83 1002.5
20240424153952 45 0 0.0 0.0 0.00 0.00 0.00 83 1002.5
20240424153452 45 0 0.0 0.0 0.00 0.00 0.00 83 1002.5
20240424152952 45 0 0.0 0.0 0.00 0.00 0.00 83 1002.5
20240424151952 46 0 0.0 0.0 0.00 0.00 0.00 82 1002.5
20240424151452 46 0 0.0 0.0 0.00 0.00 0.00 82 1002.5
20240424150953 46 0 0.0 0.0 0.00 0.00 0.00 81 1002.6
20240424150452 46 0 0.0 0.0 0.00 0.00 0.00 81 1002.6
20240424145953 46 0 0.0 0.0 0.00 0.00 0.00 80 1002.6
20240424145453 46 0 0.0 0.0 0.00 0.00 0.00 79 1002.6
20240424144953 47 0 0.0 0.0 0.00 0.00 0.00 78 1002.6
20240424144452 47 0 0.0 0.0 0.00 0.00 0.00 78 1002.6
20240424143952 47 0 0.0 0.0 0.00 0.00 0.00 77 1002.6
20240424143452 47 0 0.0 0.0 0.00 0.00 0.00 76 1002.6
20240424142953 47 0 0.0 0.0 0.00 0.00 0.00 76 1002.7
20240424142453 47 0 0.0 0.0 0.00 0.00 0.00 75 1002.7
20240424141953 47 0 0.0 0.0 0.00 0.00 0.00 76 1002.7
20240424141452 47 0 0.0 0.0 0.00 0.00 0.00 75 1002.7
20240424140953 47 0 0.0 0.0 0.00 0.00 0.00 74 1002.7
20240424135953 47 0 0.0 0.0 0.00 0.00 0.00 75 1002.7
20240424135453 47 0 0.0 0.0 0.00 0.00 0.00 74 1002.7
20240424134953 47 0 0.0 0.0 0.00 0.00 0.00 74 1002.7
20240424134453 48 0 0.0 0.0 0.00 0.00 0.00 74 1002.7
20240424133953 48 0 0.0 0.0 0.00 0.00 0.00 74 1002.7
20240424132954 48 0 0.0 0.0 0.00 0.00 0.00 74 1002.7
20240424132452 48 0 0.0 0.0 0.00 0.00 0.00 74 1002.7
20240424131953 48 0 0.0 0.0 0.00 0.00 0.00 74 1002.7
20240424131453 48 0 0.0 0.0 0.00 0.00 0.00 74 1002.8
20240424130952 48 0 0.0 0.0 0.00 0.00 0.00 74 1002.8
20240424130453 48 0 0.0 0.0 0.00 0.00 0.00 74 1002.8
20240424125953 48 0 0.0 0.0 0.00 0.00 0.00 74 1002.8
20240424125453 48 0 0.0 0.0 0.00 0.00 0.00 75 1002.7
20240424123954 48 0 0.0 0.0 0.00 0.00 0.00 74 1002.8
20240424122952 48 0 0.0 0.0 0.00 0.00 0.00 75 1002.8
20240424122452 48 0 0.0 0.0 0.00 0.00 0.00 75 1002.7
20240424121952 48 0 0.0 0.0 0.00 0.00 0.00 75 1002.7
20240424121452 48 0 0.0 0.0 0.00 0.00 0.00 75 1002.8
20240424120954 48 0 0.0 0.0 0.00 0.00 0.00 74 1002.7
20240424120453 48 0 0.0 0.0 0.00 0.00 0.00 74 1002.8
20240424115954 48 0 0.0 0.0 0.00 0.00 0.00 74 1002.8
20240424115453 48 0 0.0 0.0 0.00 0.00 0.00 74 1002.8
20240424114453 48 0 0.0 0.0 0.00 0.00 0.00 74 1002.8
20240424113953 49 0 0.0 0.0 0.00 0.00 0.00 73 1002.8
20240424113454 49 0 0.0 0.0 0.00 0.00 0.00 73 1002.9
20240424112953 49 0 0.0 0.0 0.00 0.00 0.00 73 1002.8
20240424112453 49 0 0.0 0.0 0.00 0.00 0.00 73 1002.8
20240424111953 50 0 0.0 0.0 0.00 0.00 0.00 73 1002.8
20240424110953 50 0 0.0 0.0 0.00 0.00 0.00 71 1002.8
20240424110453 50 0 0.0 0.0 0.00 0.00 0.00 73 1002.8
20240424105453 50 0 0.0 0.0 0.00 0.00 0.00 73 1002.8
20240424104953 49 0 0.0 0.0 0.00 0.00 0.00 73 1002.8
20240424104453 49 0 0.0 0.0 0.00 0.00 0.00 73 1002.8
20240424103953 49 0 0.0 0.0 0.00 0.00 0.00 74 1002.8
20240424103454 49 0 0.0 0.0 0.00 0.00 0.00 73 1002.8
20240424102953 49 0 0.0 0.0 0.00 0.00 0.00 74 1002.9
20240424102453 50 0 0.0 0.0 0.00 0.00 0.00 73 1002.9
20240424101954 50 0 0.0 0.0 0.00 0.00 0.00 73 1002.9
20240424101453 50 0 0.0 0.0 0.00 0.00 0.00 73 1002.9
20240424100954 50 0 0.0 0.0 0.00 0.00 0.00 73 1003.0
20240424100454 50 0 0.0 0.0 0.00 0.00 0.00 73 1003.0
20240424095453 50 0 0.0 0.0 0.00 0.00 0.00 73 1003.2
20240424094954 50 0 0.0 0.0 0.00 0.00 0.00 73 1003.2
20240424093453 51 0 0.0 0.0 0.00 0.00 0.00 71 1003.3
20240424092954 51 0 0.0 0.0 0.00 0.00 0.00 73 1003.3
20240424092453 51 0 0.0 0.0 0.00 0.00 0.00 72 1003.4
20240424091454 50 0 0.0 0.0 0.00 0.00 0.00 73 1003.4
20240424090955 50 0 0.0 0.0 0.00 0.00 0.00 75 1003.4
20240424090454 50 0 0.0 0.0 0.00 0.00 0.00 73 1003.5
20240424085954 50 0 0.0 0.0 0.00 0.00 0.00 74 1003.4
20240424085454 50 0 0.0 0.0 0.00 0.00 0.00 72 1003.4
20240424084954 51 0 0.0 0.0 0.00 0.00 0.00 72 1003.5
20240424084454 50 0 0.0 0.0 0.00 0.00 0.00 73 1003.5
20240424083953 50 0 0.0 0.0 0.00 0.00 0.00 73 1003.6
20240424083454 50 0 0.0 0.0 0.00 0.00 0.00 74 1003.6
20240424082454 49 0 0.0 0.0 0.00 0.00 0.00 74 1003.7
20240424081955 50 0 0.0 0.0 0.00 0.00 0.00 74 1003.7
20240424081454 50 0 0.0 0.0 0.00 0.00 0.00 75 1003.7
20240424080954 49 0 0.0 0.0 0.00 0.00 0.00 75 1003.8
20240424080454 49 0 0.0 0.0 0.00 0.00 0.00 76 1003.8
20240424075954 49 0 0.0 0.0 0.00 0.00 0.00 77 1003.7
20240424075455 49 0 0.0 0.0 0.00 0.00 0.00 78 1003.8
20240424074954 48 0 0.0 0.0 0.00 0.00 0.00 78 1003.9
20240424074454 49 0 0.0 0.0 0.00 0.00 0.00 78 1003.9
20240424073955 48 0 0.0 0.0 0.00 0.00 0.00 79 1003.9
20240424073454 48 0 0.0 0.0 0.00 0.00 0.00 79 1004.0
20240424071453 46 0 0.0 0.0 0.00 0.00 0.00 81 1004.0
20240424070953 46 0 0.0 0.0 0.00 0.00 0.00 80 1004.2
20240424070454 46 0 0.0 0.0 0.00 0.00 0.00 81 1004.2
20240424065954 46 0 0.0 0.0 0.00 0.00 0.00 81 1004.2
20240424065454 45 0 0.0 0.0 0.00 0.00 0.00 81 1004.2
20240424064454 45 0 0.0 0.0 0.00 0.00 0.00 81 1004.3
20240424063954 45 0 0.0 0.0 0.00 0.00 0.00 81 1004.2
20240424063454 45 0 0.0 0.0 0.00 0.00 0.00 81 1004.2
20240424062955 45 0 0.0 0.0 0.00 0.00 0.00 81 1004.3
20240424062453 45 0 0.0 0.0 0.00 0.00 0.00 82 1004.3
20240424061955 44 0 0.0 0.0 0.00 0.00 0.00 81 1004.4
20240424061455 44 0 0.0 0.0 0.00 0.00 0.00 82 1004.4
20240424060955 44 0 0.0 0.0 0.00 0.00 0.00 83 1004.4
20240424060454 44 0 0.0 0.0 0.00 0.00 0.00 82 1004.4
20240424055954 44 0 0.0 0.0 0.00 0.00 0.00 83 1004.4
20240424055454 43 0 0.0 0.0 0.00 0.00 0.00 83 1004.4
20240424054954 43 0 0.0 0.0 0.00 0.00 0.00 83 1004.5
20240424053454 43 0 0.0 0.0 0.00 0.00 0.00 83 1004.7
20240424052455 43 0 0.0 0.0 0.00 0.00 0.00 83 1004.7
20240424051956 42 0 0.0 0.0 0.00 0.00 0.00 84 1004.7
20240424051454 42 0 0.0 0.0 0.00 0.00 0.00 84 1004.8
20240424050954 42 0 0.0 0.0 0.00 0.00 0.00 84 1004.9
20240424050454 42 0 0.0 0.0 0.00 0.00 0.00 84 1005.0
20240424045954 42 0 0.0 0.0 0.00 0.00 0.00 85 1005.0
20240424045455 42 0 0.0 0.0 0.00 0.00 0.00 85 1005.1
20240424044454 41 0 0.0 0.0 0.00 0.00 0.00 85 1005.1
20240424043454 41 0 0.0 0.0 0.00 0.00 0.00 85 1005.2
20240424042954 41 0 0.0 0.0 0.00 0.00 0.00 85 1005.2
20240424042455 41 0 0.0 0.0 0.00 0.00 0.00 85 1005.2
20240424041455 41 0 0.0 0.0 0.00 0.00 0.00 85 1005.3
20240424040956 41 0 0.0 0.0 0.00 0.00 0.00 85 1005.3
20240424040455 41 0 0.0 0.0 0.00 0.00 0.00 85 1005.3
20240424035955 41 0 0.0 0.0 0.00 0.00 0.00 85 1005.4
20240424034954 41 0 0.0 0.0 0.00 0.00 0.00 85 1005.4
20240424034454 41 0 0.0 0.0 0.00 0.00 0.00 84 1005.4
20240424033954 41 0 0.0 0.0 0.00 0.00 0.00 84 1005.4
20240424033454 41 0 0.0 0.0 0.00 0.00 0.00 84 1005.5
20240424032955 41 0 0.0 0.0 0.00 0.00 0.00 84 1005.5
20240424032455 42 0 0.0 0.0 0.00 0.00 0.00 84 1005.6
20240424031956 42 0 0.0 0.0 0.00 0.00 0.00 84 1005.7
20240424030954 42 0 0.0 0.0 0.00 0.00 0.00 84 1005.8
20240424030455 42 0 0.0 0.0 0.00 0.00 0.00 84 1005.9
20240424025955 42 0 0.0 0.0 0.00 0.00 0.00 84 1005.9
20240424024955 42 0 0.0 0.0 0.00 0.00 0.00 84 1006.0
20240424024456 42 0 0.0 0.0 0.00 0.00 0.00 84 1006.0
20240424023954 42 0 0.0 0.0 0.00 0.00 0.00 84 1006.1
20240424023455 42 0 0.0 0.0 0.00 0.00 0.00 85 1006.2
20240424022955 42 0 0.0 0.0 0.00 0.00 0.00 85 1006.2
20240424022456 42 0 0.0 0.0 0.00 0.00 0.00 85 1006.1
20240424021955 42 0 0.0 0.0 0.00 0.00 0.00 84 1006.2
20240424021455 42 0 0.0 0.0 0.00 0.00 0.00 85 1006.2
20240424020955 42 0 0.0 0.0 0.00 0.00 0.00 85 1006.3
20240424020455 42 0 0.0 0.0 0.00 0.00 0.00 85 1006.3
20240424015955 42 0 0.0 0.0 0.00 0.00 0.00 85 1006.4
20240424015456 42 0 0.0 0.0 0.00 0.00 0.00 85 1006.5
20240424014956 42 0 0.0 0.0 0.00 0.00 0.00 85 1006.6
20240424014455 42 0 0.0 0.0 0.00 0.00 0.00 85 1006.6
20240424013955 42 0 0.0 0.0 0.00 0.00 0.00 85 1006.7
20240424013456 42 0 0.0 0.0 0.00 0.00 0.00 85 1006.8
20240424012955 42 0 0.0 0.0 0.00 0.00 0.00 85 1006.8
20240424012455 42 0 0.0 0.0 0.00 0.00 0.00 86 1007.0
20240424011955 42 0 0.0 0.0 0.00 0.00 0.00 85 1007.0
20240424010955 41 0 0.0 0.0 0.00 0.00 0.00 85 1007.0
20240424010456 41 0 0.0 0.0 0.00 0.00 0.00 85 1007.0
20240424005955 41 0 0.0 0.0 0.00 0.00 0.00 85 1007.0
20240424005455 41 0 0.0 0.0 0.00 0.00 0.00 85 1007.2
20240424004956 41 0 0.0 0.0 0.00 0.00 0.00 85 1007.1
20240424004456 41 0 0.0 0.0 0.00 0.00 0.00 85 1007.2
20240424003956 42 0 0.0 0.0 0.00 0.00 0.00 85 1007.3
20240424003455 42 0 0.0 0.0 0.00 0.00 0.00 85 1007.3
20240424002955 41 0 0.0 0.0 0.00 0.00 0.00 85 1007.4
20240424002456 41 0 0.0 0.0 0.00 0.00 0.00 85 1007.4
20240424001956 41 0 0.0 0.0 0.00 0.00 0.00 86 1007.5
20240424001456 41 0 0.0 0.0 0.00 0.00 0.00 86 1007.6
20240424000955 41 0 0.0 0.0 0.00 0.00 0.00 86 1007.6
20240424000455 41 0 0.0 0.0 0.00 0.00 0.00 86 1007.7
20240423235957 41 0 0.0 0.0 0.00 0.00 0.00 86 1007.7
20240423235455 41 0 0.0 0.0 0.00 0.00 0.00 86 1007.7
20240423234956 41 0 0.0 0.0 0.00 0.00 0.00 87 1007.8
20240423234455 41 0 0.0 0.0 0.00 0.00 0.00 87 1007.9
20240423233955 41 0 0.0 0.0 0.00 0.00 0.00 87 1007.9
20240423233455 41 0 0.0 0.0 0.00 0.00 0.00 87 1008.0
20240423232955 40 0 0.0 0.0 0.00 0.00 0.00 87 1008.0
20240423232456 40 0 0.0 0.0 0.00 0.00 0.00 88 1008.2
20240423231955 40 0 0.0 0.0 0.00 0.00 0.00 88 1008.3
20240423231455 40 0 0.0 0.0 0.00 0.00 0.00 88 1008.4
20240423230957 39 0 0.0 0.0 0.00 0.00 0.00 88 1008.4
20240423230455 39 0 0.0 0.0 0.00 0.00 0.00 87 1008.5
20240423225956 39 0 0.0 0.0 0.00 0.00 0.00 87 1008.5
20240423224957 39 0 0.0 0.0 0.00 0.00 0.00 87 1008.7
20240423224456 39 0 0.0 0.0 0.00 0.00 0.00 86 1008.8